Location: Occidental Observatory
(38.4214°N, 122.9202°W)
Time: 00:26:09
(UTC-07:00)

Daily predictions for brighter satellites

Satellite Brightness Start Highest point End
(mag) Time Altitude Azimuth Time Altitude Azimuth Time Altitude Azimuth
Cosmos 2297 Rocket 4.4 03:14:32 21° NNE 03:14:32 21° NNE 03:16:21 10° NNE
CZ-4C R/B 4.1 03:23:01 25° NNE 03:23:01 25° NNE 03:25:26 10° NNE
CZ-2D R/B 4.2 03:30:56 10° NNE 03:32:29 20° NNE 03:32:29 20° NNE
SL-16 R/B 4.5 04:00:07 17° NNW 04:00:07 17° NNW 04:01:23 10° NNW
Cosmos 2227 Rocket 4.0 04:13:47 20° NNW 04:13:47 20° NNW 04:16:05 10° N
Atlas 2A Centaur Rocket 4.4 04:11:53 38° SSE 04:12:04 38° SSE 04:30:54 10° ESE
Cosmos 1634 Rocket 4.4 04:13:43 54° NNW 04:13:43 54° NNW 04:18:34 10° N
Meteor 1-11 Rocket 4.5 04:13:57 10° N 04:17:43 44° N 04:17:43 44° N
Cosmos 2263 Rocket 4.1 04:23:52 13° SSE 04:27:41 26° ESE 04:32:16 10° NE
Cosmos 967 Rocket 4.4 04:22:52 10° NNW 04:29:20 89° NE 04:35:49 10° SSE
ISS -0.9 04:32:28 18° ENE 04:32:28 18° ENE 04:33:45 10° E
Okean O Rocket 3.6 04:29:10 10° NE 04:32:46 25° E 04:35:20 15° SE
Cosmos 1378 Rocket 4.4 04:33:26 49° E 04:33:26 49° E 04:37:37 10° NNE
Cosmos 1655 Rocket 3.9 04:28:50 10° N 04:35:12 89° E 04:37:46 39° S
Cosmos 1140 Rocket 4.0 04:35:07 49° SE 04:36:00 56° ESE 04:41:08 10° NNE
ASTEX 1 4.0 04:32:40 10° NNE 04:37:31 54° E 04:39:13 36° SSE
Cosmos 1812 3.8 04:40:35 43° ENE 04:40:35 43° ENE 04:43:52 10° NNE
ADEOS II 2.2 04:39:15 10° NNE 04:44:30 70° ESE 04:46:04 45° S
Meteor 1-27 Rocket 4.4 04:47:19 38° NW 04:47:19 38° NW 04:51:16 10° N
Cosmos 1954 Rocket 3.9 04:47:22 68° S 04:48:04 85° ESE 04:53:24 10° NNE
ARIANE 5 R/B 4.4 04:45:00 10° NNW 04:46:39 17° NNW 04:46:39 17° NNW
Cosmos 676 Rocket 3.8 04:49:33 75° W 04:49:45 76° WNW 04:55:05 10° NNE
Cosmos 1428 Rocket 4.3 04:45:18 10° NNW 04:51:25 71° W 04:54:07 35° SSW
CZ-4B R/B 3.5 04:48:47 10° NNE 04:52:52 52° E 04:53:43 43° SE
Resurs 1-4 Rocket 4.1 04:50:04 10° NNW 04:51:21 14° NW 04:51:21 14° NW
Cosmos 2297 Rocket 4.1 04:56:21 15° NW 04:56:21 15° NW 04:58:40 10° NNW
Okean 1 Rocket 3.0 04:51:50 10° N 04:56:19 86° E 04:57:04 61° SSE
CZ-4B R/B 4.3 04:52:14 10° NNE 04:57:14 42° E 05:02:14 10° S
DELTA 2 R/B (1) 3.5 04:58:37 61° WSW 04:59:40 89° SSE 05:05:16 10° E
Cosmos 1441 Rocket 3.9 05:02:06 44° N 05:02:06 44° N 05:04:48 10° N
CZ-3 R/B 3.9 04:51:32 23° SW 05:02:30 37° S 05:09:43 10° ESE
PSLV R/B 3.6 05:00:21 10° NNE 05:04:15 84° ESE 05:04:21 82° SE
Cosmos 1500 4.2 05:02:29 10° N 05:06:07 45° E 05:09:44 10° SSE
CZ-4C R/B 3.9 05:08:12 17° NW 05:09:03 18° NW 05:13:02 10° N
MOS 1-B 4.3 05:03:58 10° N 05:09:44 69° WNW 05:12:25 33° SSW
Cosmos 614 Rocket 3.8 05:08:40 43° SSW 05:10:20 80° WNW 05:15:28 10° NNE
Tiangong 1 2.4 05:18:27 28° NNE 05:18:27 28° NNE 05:20:29 10° ENE
Meteor 1-31 Rocket 4.4 05:15:31 10° NNE 05:19:06 35° E 05:22:39 10° SSE
Atlas Centaur 2 3.4 05:17:45 21° SSW 05:19:23 24° S 05:23:14 10° ESE
Cosmos 2084 3.7 05:18:18 10° NNW 05:22:05 60° NE 05:26:00 10° SE
Intercosmos 25 Rocket 4.4 05:20:19 10° S 05:25:32 52° E 05:29:05 10° NNE
CZ-4B DEB 4.1 05:23:08 10° NNE 05:28:38 90° ESE 05:34:05 10° SSW
Cosmos 1603 3.8 05:25:37 10° NNW 05:31:03 50° WSW 05:36:30 10° S
Cosmos 1607 3.9 05:30:10 17° SSW 05:35:05 87° WNW 05:41:29 10° NNE
Cosmos 1975 Rocket 3.0 05:32:11 18° SSW 05:35:23 61° W 05:39:47 10° N
Cosmos 1544 Rocket 4.3 05:32:23 10° N 05:36:38 55° E 05:40:53 10° SSE
PSLV R/B 3.7 05:32:47 10° N 05:36:49 46° WNW 05:38:42 27° SW
Landsat 4 3.9 05:35:58 10° SSE 05:39:46 76° ENE 05:43:36 10° N
Cosmos 1455 Rocket 3.6 05:40:39 10° N 05:44:56 61° E 05:49:12 10° SSE
PAYLOAD B 4.3 05:41:30 10° N 05:46:56 59° WNW 05:52:18 10° SSW
Cosmos 1743 3.5 05:44:10 10° N 05:48:01 55° E 05:51:51 10° SSE
Cosmos 1666 4.1 05:44:28 10° N 05:48:02 40° E 05:51:36 10° SSE
BREEZE-M DEB (TANK) 4.2 05:34:01 10° WNW 05:48:04 44° SW 05:52:13 10° SSE
Cosmos 1437 Rocket 2.7 05:47:08 10° NNW 05:51:00 58° W 05:54:54 10° S
Cosmos 1741 Rocket 4.1 05:48:26 11° SW 05:53:15 55° WNW 05:58:25 10° N
GEOS 3 Rocket 4.0 05:48:15 10° SE 05:53:22 66° NE 05:58:36 10° NNW
GPS 2-05 Rocket1 3.0 05:56:35 24° WSW 05:58:02 44° S 06:01:00 10° ESE
Cosmos 1943 3.2 05:52:31 10° NNW 05:58:07 59° WSW 06:03:40 10° S
Cosmos 1536 Rocket 3.8 05:56:21 10° S 06:00:37 74° E 06:04:58 10° N
ATLAS 3B R/B 3.4 05:54:34 10° SSW 06:01:54 62° ESE 06:08:58 10° NE
Cosmos 1844 Rocket 4.4 05:59:39 10° SSE 06:04:43 35° ESE 06:09:49 10° NE
ISS -3.1 06:05:11 15° WNW 06:07:27 35° SW 06:10:28 10° SSE
SL-8 R/B 3.8 06:03:31 15° WSW 06:07:28 70° NNW 06:12:16 10° NE
Okean O Rocket 2.6 06:05:27 10° NNW 06:09:03 26° WNW 06:12:40 10° SW
Cosmos 2263 Rocket 2.7 06:05:58 10° SW 06:11:18 42° WNW 06:16:43 10° N
Abrixas rocket 3.1 06:10:22 15° W 06:12:41 36° NNW 06:15:44 10° NE
Meteor 1-28 Rocket 3.2 06:09:28 10° SSE 06:13:10 86° ENE 06:16:56 10° N
Cosmos 468 Rocket 4.2 06:12:18 10° NNW 06:17:39 81° ENE 06:22:57 10° SSE
S3M 4.2 06:13:19 10° S 06:19:32 81° E 06:25:52 10° N
Cosmos 1975 3.7 06:18:12 10° NNW 06:21:44 28° W 06:25:16 10° SSW
Meteor 1-19 Rocket 4.3 06:15:57 10° SSW 06:21:48 69° W 06:27:39 10° N
ADEOS II 3.8 06:20:51 10° NNW 06:23:35 14° WNW 06:26:20 10° W
USA 215 3.4 06:20:24 10° SE 06:26:56 82° NE 06:33:29 10° NW
Cosmos 332 Rocket 3.8 06:23:46 10° NNW 06:28:30 58° WSW 06:33:11 10° S
TELKOM 3 3.8 06:27:38 10° W 06:29:48 32° NNW 06:31:47 10° NE
NOAA 6 4.0 06:24:58 10° N 06:30:09 78° WNW 06:35:20 10° SSW
Meteor 2-4 Rocket 3.7 06:26:57 10° SSW 06:32:26 79° W 06:38:07 10° N
Cosmos 371 Rocket 3.3 06:30:21 10° NNW 06:35:10 61° WSW 06:39:56 10° S
